Location: Antoign�
(47.0844°N, 0.1131°W)
Time: 00:24:56
(UTC+00:00)

MOS 1 Rocket - Pass Details

Date: 03 March 2021
Orbit: 615 x 829 km, 97.4° (Epoch: 14 April)

Event Time Altitude Azimuth Distance (km) Brightness Sun altitude
Rises 18:32:09 0° 8° (N) 3,172 6.6 -8.1°
Reaches altitude 10° 18:34:25 10° 4° (N) 2,277 5.9 -8.5°
Maximum altitude 18:39:20 56° 288° (WNW) 924 4.3 -9.4°
Drops below altitude 10° 18:44:29 10° 211° (SSW) 2,378 6.5 -10.2°
Sets 18:46:54 0° 207° (SSW) 3,325 7.2 -10.7°
